Location: L�gaud
(45.7115°N, 1.7775°E)
Time: 18:38:43
(UTC+00:00)

Cosmos 1844 Rocket - Pass Details

Date: 03 March 2021
Orbit: 826 x 843 km, 71.0° (Epoch: 13 April)

Event Time Altitude Azimuth Distance (km) Brightness Sun altitude
Rises 20:05:49 0° 326° (NW) 3,374 6.6 -25.5°
Reaches altitude 10° 20:08:27 10° 317° (NW) 2,436 5.9 -26.0°
Maximum altitude 20:13:22 33° 255° (WSW) 1,353 4.2 -26.8°
Enters shadow 20:17:46 13° 195° (SSW) 2,248 4.8 -27.5°
